Content
SEND FEEDBACK

Daily
Averages
Monthly
Summary
Canada

DRUMHELLER ANDREW, ALBERTA


Home > North America > Canada > Alberta
Elevation: 2360 feet     Latitude: 51 28N     Longitude: 112 52W

WEATHER
 
SELECT A DAY
Number of Records: 137,221;   Date Range: 1/1/95 - 7/8/14
 
SHARE

PRINT THIS DATA

[ ← Previous Day ]
WEATHER ALMANAC - JANUARY 31, 2013
[ Next Day → ]
[ °C ]   °F
Weather ElementAverageHighLow
Temperature7.5 °F17 °F (11:00 pm)-5.4 °F (1:00 am)
Dewpoint2.2 °F12.4 °F (11:00 pm)-9.9 °F (1:00 am)
Humidity77.6 %84 % (9:00 pm)64 % (11:00 am)
Barometer30.17 in30.40 in (1:00 am)30.00 in (11:00 pm)
Wind Speed6.7 mph10.4 mph (6:00 am)
Weather ElementAverage
Wind DirectionSSE (167.8 °)

Weather ElementTotal
Precipitation---
Heating Degree Days59.2 (Base 65)
Averaged from 27 records on January 31, 2013
WEATHER CONDITIONS BREAKOUT
WIND DIRECTION BREAKOUT
WEATHER BY HOUR - JANUARY 31, 2013
[ °C ]   °F
Local TimeTemperatureDewpointHumidityBarometerVisibilityWind DirectionWind SpeedGust SpeedPrecipitationEventsConditions
1:00 AM-5.4 °F-9.9 °F81 %30.40 inSE (130°)5.8 mph
2:00 AM-4.4 °F-8.9 °F81 %30.38 inSE (140°)6.9 mph
3:00 AM-2.7 °F-8.0 °F78 %30.37 inSE (140°)5.8 mph
4:00 AM-2.4 °F-7.6 °F78 %30.35 inSE (140°)8.1 mph
5:00 AM-2.0 °F-7.0 °F70 %30.32 inSE (140°)8.1 mph
5:00 AM-1.7 °F-6.9 °F78 %30.32 inSE (140°)8.1 mph
6:00 AM-0.4 °F-5.8 °F78 %30.30 inSE (140°)10.4 mph
7:00 AM0.3 °F-4.7 °F79 %30.26 inSSE (150°)9.2 mph
8:00 AM1.8 °F-3.3 °F79 %30.24 inSE (140°)9.2 mph
9:00 AM3.0 °F-2.2 °F79 %30.23 inSE (140°)10.4 mph
10:00 AM4.5 °F-0.8 °F79 %30.22 inSSE (150°)8.1 mph
11:00 AM7.0 °F1.0 °F64 %30.18 inSSE (150°)9.2 mph
11:00 AM6.8 °F0.7 °F76 %30.18 inSSE (150°)9.2 mph
12:00 PM9.1 °F2.7 °F75 %30.16 inSE (140°)10.4 mph
1:00 PM10.8 °F4.6 °F76 %30.13 inSSE (160°)8.1 mph
2:00 PM12.4 °F6.3 °F76 %30.11 inSSE (160°)6.9 mph
3:00 PM13.6 °F7.7 °F77 %30.08 inSouth (170°)8.1 mph
4:00 PM14.5 °F8.8 °F78 %30.06 inSSE (160°)8.1 mph
5:00 PM15.0 °F9.0 °F68 %30.05 inSouth (170°)4.6 mph
5:00 PM14.5 °F9.1 °F79 %30.05 inSouth (170°)4.6 mph
6:00 PM15.1 °F10.0 °F80 %30.05 inSSE (160°)5.8 mph
7:00 PM15.1 °F10.0 °F80 %30.04 inSSE (150°)5.8 mph
8:00 PM14.7 °F9.9 °F81 %30.02 inSE (130°)4.6 mph
9:00 PM13.3 °F9.3 °F84 %30.02 inSouth (170°)2.3 mph
10:00 PM15.6 °F11.7 °F84 %30.01 inWNW (300°)1.2 mph
11:00 PM17.0 °F12.0 °F74 %30.00 inNW (320°)1.2 mph
11:00 PM16.5 °F12.4 °F84 %30.00 inNW (320°)1.2 mph
Hourly data recorded from CWDZ, located miles away from Drumheller Andrew, Alberta







STORIES FROM OUR PARTNERS